Location: Capannuccia
(43.7000°N, 11.3000°E)
Time: 18:32:05
(UTC+00:00)

AQUA - Pass Details

Date: 07 June 2020
Orbit: 702 x 703 km, 98.2° (Epoch: 01 July)

Event Time Altitude Azimuth Distance (km) Brightness Sun altitude
Rises 01:09:01 0° 14° (NNE) 3,100 8.6 -18.4°
Reaches altitude 10° 01:11:17 10° 16° (NNE) 2,177 7.5 -18.3°
Maximum altitude 01:16:04 79° 103° (ESE) 719 3.8 -17.8°
Enters shadow 01:18:25 30° 187° (S) 1,238 4.6 -17.6°
